Weather History for FAGG - September, 2014

Change the Weather History Date:

Friday, September 19, 2014

  Actual Average Record
Temperature  
Mean Temperature 54 °F -  
Max Temperature 62 °F 66 °F 84 °F (2007)
Min Temperature 45 °F 49 °F 42 °F (1998)
Degree Days  
Heating Degree Days 12    
Growing Degree Days 4 (Base 50)    
Moisture  
Dew Point 41 °F    
Average Humidity 64    
Maximum Humidity 94    
Minimum Humidity 33    
Precipitation  
Precipitation 0.03 in - - ()
Sea Level Pressure  
Sea Level Pressure 30.27 in    
Wind  
Wind Speed 13 mph ()    
Max Wind Speed 24 mph    
Max Gust Speed -    
Visibility 8.2 miles    
Events Rain    
Averages and records for this station are not official NWS values.
T = Trace of Precipitation, MM = Missing Value Source: Averaged Metar Reports

Daily Weather History Graph

Daily Weather History Graph

Search for Another Location

Airport or City:

Trip Planner

Search our weather history database for the weather conditions in past years. The results will help you decide how hot, cold, wet, or windy it might be!

Date:

Astronomy

Sep. 19, 2014 Rise Set
Actual Time 6:24 AM SAST 6:24 PM SAST
Civil Twilight 5:59 AM SAST 6:49 PM SAST
Nautical Twilight 5:30 AM SAST 7:18 PM SAST
Astronomical Twilight 5:01 AM SAST 7:48 PM SAST
Moon 3:22 AM SAST (9/19) 2:19 PM SAST (9/19)
Length of Visible Light 12h 50m
Length of Day
12h 00m
Waning Crescent, 20% of the Moon is Illuminated
Sep 19
Waning Crescent
Sep 24
New
Oct 1
First Quarter
Oct 8
Full
Oct 15
Last Quarter

Hourly Weather History & Observations

Time (SAST) Temp. Windchill Dew Point Humidity Pressure Visibility Wind Dir Wind Speed Gust Speed Precip Events Conditions
12:00 AM 48.2 °F - 41.0 °F 76% 30.09 in 6.2 mi WNW 11.5 mph - N/A   Partly Cloudy
1:00 AM 48.2 °F - 42.8 °F 82% 30.12 in 6.2 mi WNW 10.4 mph - N/A   Mostly Cloudy
2:00 AM 49 °F - 41 °F 64% 30.15 in 31 mi West 21.9 mph - -  
2:00 AM 48.2 °F - 41.0 °F 76% 30.12 in 6.2 mi West 20.7 mph - N/A   Scattered Clouds
3:00 AM 50.0 °F - 39.2 °F 66% 30.15 in 6.2 mi West 24.2 mph - N/A   Scattered Clouds
4:00 AM 48.2 °F - 41.0 °F 76% 30.15 in 6.2 mi West 13.8 mph - N/A   Partly Cloudy
5:00 AM 48 °F - 39 °F 62% 30.19 in 19 mi West 12.7 mph - -  
5:00 AM 48.2 °F - 39.2 °F 71% 30.18 in - West 11.5 mph - N/A   Clear
6:00 AM 46.4 °F 41.5 °F 39.2 °F 76% 30.18 in 6.2 mi West 10.4 mph - N/A   Partly Cloudy
7:00 AM 46.4 °F 41.1 °F 39.2 °F 76% 30.21 in 6.2 mi WNW 11.5 mph - N/A   Partly Cloudy
8:00 AM 53 °F - 38 °F 45% 30.27 in 19 mi WNW 16.1 mph - -   Scattered Clouds
8:00 AM 53.6 °F - 37.4 °F 54% 30.24 in 6.2 mi WNW 15.0 mph - N/A   Partly Cloudy
9:00 AM 57.2 °F - 37.4 °F 48% 30.27 in 6.2 mi West 20.7 mph - N/A   Partly Cloudy
10:00 AM 55.4 °F - 35.6 °F 47% 30.30 in 6.2 mi West 24.2 mph - N/A   Mostly Cloudy
11:00 AM 56 °F - 37 °F 36% 30.30 in 19 mi NW 11.5 mph - -   Mostly Cloudy
11:00 AM 55.4 °F - 37.4 °F 51% 30.30 in 6.2 mi NW 15.0 mph - N/A   Mostly Cloudy
12:00 PM 59.0 °F - 39.2 °F 48% 30.30 in 6.2 mi West 20.7 mph - N/A   Mostly Cloudy
1:00 PM 60.8 °F - 37.4 °F 42% 30.27 in 6.2 mi West 21.9 mph - N/A   Mostly Cloudy
2:00 PM 59 °F - 38 °F 33% 30.30 in 12 mi WSW 21.9 mph - -   Mostly Cloudy
2:00 PM 59.0 °F - 37.4 °F 45% 30.27 in 6.2 mi WSW 20.7 mph - N/A   Mostly Cloudy
3:00 PM 60.8 °F - 39.2 °F 45% 30.30 in 6.2 mi West 19.6 mph - N/A   Partly Cloudy
4:00 PM 59.0 °F - 37.4 °F 45% 30.30 in 6.2 mi West 17.3 mph - N/A   Mostly Cloudy
5:00 PM 56 °F - 42 °F 48% 30.34 in 12 mi WNW 9.2 mph - -   Mostly Cloudy
5:00 PM 57.2 °F - 41.0 °F 55% 30.33 in 6.2 mi WNW 9.2 mph - N/A   Mostly Cloudy
6:00 PM 51.8 °F - 50.0 °F 94% 30.36 in 5.6 mi West 10.4 mph - N/A Rain Light Rain
7:00 PM 50.0 °F - 48.2 °F 94% 30.36 in 6.2 mi North 5.8 mph - N/A   Mostly Cloudy
8:00 PM 51 °F - 47 °F 82% 30.40 in 12 mi NW 4.6 mph - -   Partly Cloudy
8:00 PM 50.0 °F - 46.4 °F 87% 30.39 in 6.2 mi NW 4.6 mph - N/A   Scattered Clouds
9:00 PM 48.2 °F - 46.4 °F 93% 30.39 in 6.2 mi NW 4.6 mph - N/A   Scattered Clouds
10:00 PM 46.4 °F 44.3 °F 44.6 °F 93% 30.39 in - NW 4.6 mph - N/A   Clear
11:00 PM 48.2 °F - 42.8 °F 82% 30.42 in - NNW 6.9 mph - N/A   Clear